Location: Unspecified
(49.2170°N, 0.0000°E)
Time: 15:06:15
(UTC+00:00)

Tiros 1 despin weight - Pass Details

Date: 28 January 2021
Orbit: 593 x 642 km, 48.2° (Epoch: 07 March)

Event Time Altitude Azimuth Distance (km) Brightness Sun altitude
Rises 17:59:13 0° 282° (WNW) 2,869 ? -11.3°
Reaches altitude 10° 18:01:42 10° 273° (W) 1,954 ? -11.7°
Maximum altitude 18:05:42 33° 210° (SSW) 1,022 ? -12.4°
Drops below altitude 10° 18:09:39 10° 146° (SE) 1,926 ? -13.0°
Enters shadow 18:11:48 - 137° (SE) 2,712 ? -13.3°
Sets 18:12:05 0° 137° (SE) 2,821 - -13.4°
